STARLINK-32852, 62824

Orbit data source: Space-Track

STARLINK-32852, 62824 is a payload satellite owned by SpaceX/Seattle (US) in LEO that was launched on Fri, 24 Jan 2025 UTC via an FALCON 9 launch vehicle from the Air Force Western Test Range (AFWTR). Payload-class satellites include a variety of spacecraft equipped with specific instruments for various scientific and technological missions. These include communications satellites like Starlink; space stations such as the ISS; scientific satellites like the Hubble; Earth observation satellites from companies like Planet Labs, Umbra, and HawkEye 360; GPS; miniature CubeSats for education and research; and military/defense satellites.

Loading next visibility...
Identifier
62824, 2025-018U
Orbit
LEO
Last TLE update
19 hours ago
Origin
Manufacturer
SpaceX/Seattle
Mission
Operational Commercial Communications
Bus & Motor
STARLINK V2M, Unknown motor
Mass
730 kg wet, ~700 kg dry
Launch date (UTC)
2025-01-24 (6 months ago)
Launch vehicle
FALCON 9
Launch site
Air Force Western Test Range (AFWTR)
Object type
Payload
Rocket body
Debris
Shape & HBR
Box + 2 Pan, 29 m
Radar Cross Section
33.884 m², Large (>1 m²)

Expand to show TLE details & history

TLE from 19 hours ago
0 STARLINK-32852
1 62824U 25018U   25193.70021455  .00012368  00000-0  42865-3 0  9990
2 62824  53.1586 344.4189 0000788 112.1016 248.0068 15.30225854 26438
Epoch: 2025-07-12T16:48Z
TLE epoch observation values (Epoch: 2025-07-12T16:48:18.537Z)
Latitude
-0.00004°
Longitude
161.5076°
Altitude
476.24 km
Speed
7.629 km/s
True Right ascension
22h 57m 40s
True Declination
0° 00' 00"
Sunlit
Object was in full shadow at epoch
Visualization orbit readout
Latitude
53.30438°
Longitude
-113.454°
Altitude
481.162 km
Speed
7.632 km/s
Apparent Right ascension
09h 04m 44s
Apparent Declination
16° 29' 45"
Sunlit
Object is in daylight
Visualization observer readout
Local Sidereal Time
00:26:13
Azimuth
50.434° ENE
Elevation
-16.67°
Doppler factor
1
Orbital elements
Apogee altitude
475.935 km
Perigee altitude
474.854 km
Semi-major axis
6,853.532 km
Eccentricity
0.00008
Inclination
53.1586°
RAAN
344.4189°
Arg. of periapsis
112.1016°
True anomaly
Unknown
Mean anomaly
248.0068°
Eccentric anomaly
Unknown
Mean motion
3.82535 °/min
Orbital period
94.11 mins
BSTAR
0.00042865
Loading maneuver chart data...
Loading SW <> Apogee altitude chart data...
Loading historical data...
Loading historical data...
Loading historical data...
Loading historical data...
Loading historical data...
Loading historical data...
Loading historical data...

STARLINK-32852 Visibility forecast

Observer location: undefined°, undefined°

Span
Click to sort rows by Start time (UTC) header in descending order
Start Az.
Max El. time (UTC)
Max El. Az.
Max El.
End time (UTC)
End Az.
6 mins2025-07-13 13:23:12.331Z254.581° W2025-07-13 13:26:12.331Z321.687° NNW34.503°2025-07-13 13:29:12.331Z35.85° NE
5 mins2025-07-13 18:21:12.331Z343.132° N2025-07-13 18:23:12.331Z28.488° NE22.837°2025-07-13 18:26:12.331Z84.41° E
5 mins2025-07-13 19:59:12.331Z290.57° WNW2025-07-13 20:01:12.331Z226.86° WSW37.047°2025-07-13 20:04:12.331Z152.141° SSE
|